www.pogodaiklimat.ru

Погода и климат >> Архив погоды >> Португалия >> Виана-ду-Каштелу


ПОГОДА в Виана-ду-Каштелу

  • Прогноз погоды в Виана-ду-Каштелу
  • Монитор погоды в Виана-ду-Каштелу

АРХИВ ПОГОДЫ в Виана-ду-Каштелу

Время (UTC), дата Ветер
(напр.,м/с)
 
Видим.   Явления Облачность Т
(С)
Тd
(С)
f
(%)
Тe
(С)
Тes
(С)
Комфортность P
(гПа)
Po
(гПа)
Тmin
(С)
Tmax
(С)
R
(мм)
R24
(мм)
S
(см)
03 16.07 С 0 н/о н/о +16.2 +16.0 99 +16 +16 1014.7 1009.0
06 16.07 С 0 н/о н/о +16.3 +16.3 100 +16 +16 1014.8 1009.1 +15.7
09 16.07 14 км н/о +21.0 +18.2 84 1015.0 1009.3
12 16.07 16 км н/о +26.0 +17.7 60 1014.1 1008.6
15 16.07 16 км н/о +23.3 +17.2 69 1013.3 1007.8
18 16.07 16 км н/о +22.5 +17.6 74 1012.7 1007.2 +27.7
21 16.07 С 0 н/о н/о +19.1 +16.3 84 +21 +21 комфорт 1013.6 1008.0
00 17.07 С 0 н/о н/о +17.4 +15.8 90 +17 +17 1014.2 1008.5
03 17.07 С 0 н/о н/о +15.5 +14.9 96 +15 +15 1014.0 1008.3
06 17.07 С 0 н/о н/о +15.4 +14.8 96 +15 +15 1015.0 1009.3 +14.8
09 17.07 16 км н/о +22.5 +17.0 71 1015.7 1010.1
12 17.07 14 км н/о +24.1 +16.6 63 1016.0 1010.5
15 17.07 14 км н/о +24.2 +16.2 61 1015.9 1010.3
18 17.07 16 км н/о +22.1 +15.2 65 1015.5 1009.9 +26.2
21 17.07 С 0 н/о н/о +18.5 +14.9 80 +19 +19 1017.0 1011.3
00 18.07 С 0 н/о н/о +16.3 +14.2 87 +16 +16 1017.9 1012.2
03 18.07 С 0 н/о н/о +14.2 +13.0 92 +14 +14 1017.7 1012.0
06 18.07 С 0 н/о н/о +15.4 +13.3 87 +15 +15 1018.0 1012.3 +14.0
09 18.07 16 км н/о +21.4 +14.8 66 1018.1 1012.5
12 18.07 16 км н/о +24.4 +15.5 58 1017.5 1011.9
15 18.07 16 км н/о +24.1 +17.7 67 1016.3 1010.8
18 18.07 12 км н/о +22.7 +17.6 73 1015.4 1009.8 +25.4
21 18.07 С 0 н/о н/о +19.3 +16.8 85 +21 +21 комфорт 1015.9 1010.2
00 19.07 С 0 н/о н/о +17.7 +16.5 93 +18 +18 1015.7 1010.1
03 19.07 С 0 н/о н/о +16.1 +15.6 97 +16 +16 1014.7 1009.0
06 19.07 С 0 н/о н/о +15.1 +14.9 99 +15 +15 1015.0 1009.3 +14.7
09 19.07 16 км н/о +19.6 +16.5 82 1015.7 1010.0
12 19.07 16 км н/о +21.0 +16.6 76 1015.3 1009.7
15 19.07 16 км н/о +22.1 +17.3 74 1014.4 1008.8
18 19.07 14 км н/о +22.0 +17.9 78 1014.6 1009.0 +23.6
21 19.07 С 0 н/о н/о +16.9 +16.5 97 +17 +17 1015.5 1009.8
00 20.07 С 0 н/о н/о +18.3 +17.7 96 +19 +19 1016.1 1010.4
03 20.07 С 0 н/о н/о +17.6 +17.3 98 +18 +18 1016.3 1010.6
06 20.07 С 0 н/о н/о +16.7 +16.4 98 +17 +17 1016.9 1011.2 +16.4
09 20.07 С 0 н/о н/о +22.1 +18.4 80 +27 +27 душно 1018.0 1012.4
12 20.07 С 0 н/о н/о +22.1 +18.9 82 +27 +27 душно 1018.6 1013.0
15 20.07 С 0 н/о н/о +23.8 +17.6 68 +28 +28 душно 1018.4 1012.8
18 20.07 С 0 н/о н/о +22.1 +17.0 73 +27 +27 душно 1018.8 1013.2 +24.6
21 20.07 С 0 н/о н/о +18.5 +15.5 83 +19 +19 1019.8 1014.1
00 21.07 С 0 н/о н/о +15.7 +14.8 94 +15 +15 1019.7 1014.0
03 21.07 С 0 н/о н/о +14.7 +14.2 97 +14 +14 1019.5 1013.7
06 21.07 С 0 н/о н/о +14.9 +14.4 97 +15 +15 1019.9 1014.1 +14.4
09 21.07 С 0 н/о н/о +21.8 +16.8 73 +26 +26 душно 1019.8 1014.2
12 21.07 С 0 н/о н/о +23.7 +17.3 67 +28 +28 душно 1019.8 1014.2
15 21.07 С 0 н/о н/о +25.9 +18.3 63 +31 +31 очень
душно
1018.8 1013.3
18 21.07 С 0 н/о н/о +23.4 +17.4 69 +29 +29 душно 1018.0 1012.4 +27.1
21 21.07 С 0 н/о н/о +19.2 +16.4 84 +21 +21 комфорт 1018.3 1012.6
00 22.07 С 0 н/о н/о +19.8 +18.2 90 +22 +22 комфорт 1018.4 1012.7
03 22.07 С 0 н/о н/о +16.4 +15.2 93 +16 +16 1017.8 1012.1
06 22.07 С 0 н/о н/о +15.4 +15.1 98 +15 +15 1018.1 1012.3 +15.0
09 22.07 9000 м дымка н/о +21.5 +17.5 78 1018.3 1012.7
12 22.07 14 км н/о +23.0 +17.3 70 1018.0 1012.4
15 22.07 С 0 н/о н/о +23.1 +17.6 71 +28 +28 душно 1017.1 1011.5
18 22.07 С 0 н/о н/о +21.0 +18.0 83 +25 +25 комфорт 1016.3 1010.6 +25.7
21 22.07 С 0 н/о н/о +17.9 +17.1 95 +18 +18 1016.9 1011.3
00 23.07 С 0 н/о н/о +17.0 +16.6 97 +17 +17 1015.7 1010.0

 

Местоположение метеостанции Виана-ду-Каштелу (Португалия): широта 41.63 долгота -8.80 высота над уровнем моря 48 м.

В архиве по умолчанию представлена погода в Виана-ду-Каштелу за последнюю неделю. Архивные данные за месяц целиком и за предыдущие месяцы, начиная с января 2011 года, Вы можете получить, выбрав интересующий диапазон дат из раскрывающегося списка и нажав кнопку "Ввод!".


*Определитесь, кто Вы:
робот инопланетянин человек

Внимание! Время в таблицах - всемирное. Для получения местного времени необходимо прибавить поправку, которая равна 0 ч.

Смотрите также архив погоды в соседних городах и на ближайших метеорологических станциях:

Погода в Порту (Португалия) (46 км)
Погода в Виго (Испания) (68 км)
Погода в Оваре (Португалия) (80 км)
Погода в Понтеведре (Испания) (90 км)
Погода в Вила-Реале (Португалия) (99 км)
Погода в Хинсо-де-Лимии (Испания) (102 км)
Погода в Карбальино (Испания) (106 км)
Погода в Оренсе (Испания) (109 км)
Погода в Падроне (Испания) (124 км)
Погода в Визеу (Португалия) (127 км)

Пояснения к столбцам:

Ветер - указаны скорость ветра в м/с - средняя за 10 мин, порывы в срок и между сроками (в фигурных скобках) и направление, откуда дует ветер: С - северный, СВ - северо-восточный, В - восточный, ЮВ - юго-восточный, Ю - южный, ЮЗ - юго-западный, З - западный, СЗ - северо-западный.
Видимость - горизонтальная дальность видимости в метрах или километрах. При видимости от 1 до 10 км при отсутствии осадков обычно наблюдается дымка, при ухудшении видимости до 1 км и менее - туман. В сухую погоду видимость может ухудшаться дымом, пылью или мглою.
Явления - указаны атмосферные явления, наблюдавшиеся в срок или в последний час перед сроком; фигурными скобками обозначены явления, наблюдавшиеся между сроками (за 1-3 часа до срока); квадратными скобками обозначены град или гололедные отложения с указанием их диаметра в мм.
Облачность - указаны через наклонную черту общая и нижняя облачность в баллах и высота нижней границы облаков в метрах; квадратными скобками обозначены формы облаков: Ci - перистые, Cs - перисто-слоистые, Cc - перисто-кучевые, Ac - высококучевые, As - высокослоистые, Sc - слоисто-кучевые, Ns - слоисто-дождевые, Cu - кучевые, Cb - кучево-дождевые. Подробнее классификацию облаков см. в Атласе облаков (PDF).
T - Температура воздуха - температура, измеренная на высоте 2 м над землей.
Td - Температура точки росы - температура, при понижении до которой содержащийся в воздухе водяной пар достигнет насыщения.
f - Относительная влажность воздуха - влажноcть воздуха, измеренная на высоте 2 м над землей.
Te - Эффективная температура - температура, которую ощущает одетый по сезону человек в тени. Характеристика душности погоды. При расчете учитывается влияние влажности воздуха и скорости ветра на теплоощущения человека.
Tes - Эффективная температура на солнце - температура, которую ощущает человек, с поправкой на солнечный нагрев. Характеристика знойности погоды. Зависит от высоты солнца над горизонтом, облачности и скорости ветра. Ночью, в пасмурную погоду, а также при ветре 12 м/с и более поправка равна нулю.
P - Атмосферное давление - приведенное к уровню моря атмосферное давление.
Po - Атмосферное давление - измеренное на уровне метеостанции атмосферное давление.
Tmin - Минимальная температура - минимум температуры воздуха на высоте 2 м над землей.
Tmax - Максимальная температура - максимум температуры воздуха на высоте 2 м над землей.
R - Количество осадков - Количество выпавших осадков за период времени, мм. При наведении курсора мыши на число - период времени, за который выпало указанное количество осадков.
R24 - Количество осадков - Количество выпавших осадков за 24 часа, мм.
S - Снежный покров - Высота снежного покрова, см. При наведении курсора мыши на число - состояние снежного покрова и степень покрытия местности в баллах.